Regional Weather Roundup
Issued by NWS Charleston, SC

Current Version | Previous Version | Graphics & Text | Print | Product List | Glossary On
Versions: 1 2 3 4 5 6 7 8 9 10 11 12 13 14 15 16 17 18 19 20 21 22 23 24 25 26 27 28 29 30 31 32 33 34 35 36 37 38 39 40 41 42 43 44 45 46 47 48 49 50
000
ASUS42 KCHS 012013
RWRCHS

REGIONAL WEATHER ROUNDUP
NATIONAL WEATHER SERVICE CHARLESTON SC
400 PM EDT SUN MAY 01 2016

NOTE: "FAIR" INDICATES FEW OR NO CLOUDS BELOW 12,000 FEET WITH NO
SIGNIFICANT WEATHER AND/OR OBSTRUCTIONS TO VISIBILITY.

NOT ALL STATIONS ARE QUALITY CONTROLLED. USE DATA WITH CAUTION...
ESPECIALLY DEWPOINT OBSERVATIONS.

SCZ027-030-031-034>040-042>050-012100-
...SOUTHEAST SOUTH CAROLINA...

CITY           SKY/WX    TMP DP  RH WIND       PRES   REMARKS
N CHARLESTON   CLOUDY    79  68  69 SW14G24   30.03F
WATERFRONT PRK   N/A     77  72  84 S13       30.02F
MOUNT PLEASANT FAIR      79  72  78 S14       30.05S
JOHNS ISLAND   MOCLDY    79  72  78 S12       30.05S
PINOPOLIS        N/A     81  66  61 SW7       29.96R
MONCKS CORNER  FAIR      75  64  69 S6        30.04R
SUMMERVILLE    FAIR      77  70  78 CALM      30.04F
BEAUFORT MCAS  MOSUNNY   83  68  60 S8        30.03F
BEAUFORT ARPT  FAIR      81  68  65 S10G18    30.04S
HILTON HEAD IS NOT AVBL
WALTERBORO     MOCLDY    81  70  69 S8        30.04R
ALLENDALE      RAIN      70  66  88 E5        30.03F

...SOUTHERN MIDLANDS AND PEE DEE...

CITY           SKY/WX    TMP DP  RH WIND       PRES   REMARKS
GEORGETOWN     CLOUDY    77  68  73 S9        30.06S
KINGSTREE      TSTM      68  64  88 N3        30.07R
ORANGEBURG     LGT RAIN  72  68  87 S7        30.03S
BARNWELL       FAIR      73  72  94 S7        30.04F
AIKEN          MOCLDY    82  66  57 S9        30.03F
MANNING        NOT AVBL
COLUMBIA       PTSUNNY   86  67  52 SW6       29.98F
SUMTER         CLOUDY    71  68  90 SE8       30.01F
FLORENCE       PTSUNNY   70  66  87 SE12      30.06R
MYRTLE BEACH   PTSUNNY   75  64  69 S12       30.07F
N MYRTLE BEACH CLOUDY    73  69  87 N7        30.07F

$$

GAZ063-065-086>088-099>101-113>116-118-119-134>141-150-012100-
...SOUTHEAST GEORGIA...

CITY           SKY/WX    TMP DP  RH WIND       PRES   REMARKS
SAVANNAH ARPT  PTSUNNY   84  67  56 SE17      30.01F
HUNTER AAF     SUNNY     84  69  61 SE9G17    30.00F
FORT STEWART   MOSUNNY   84  69  60 SE9       29.99F
STATESBORO     TSTM      75  71  87 N8G17     30.03S
SYLVANIA       TSTM      73  72  97 CALM      30.05R
CLAXTON        FAIR      83  71  67 CALM      30.02R

...CSRA...CENTRAL AND FAR SOUTHEAST GEORGIA...

CITY           SKY/WX    TMP DP  RH WIND       PRES   REMARKS
THOMSON        CLOUDY    89  68  49 W9        30.03F HX  92
AUGUSTA-BUSH   MOSUNNY   87  69  54 SE10      29.98F HX  91
AUGUSTA-DANIEL MOSUNNY   89  62  40 VRB7      29.99F
SWAINSBORO     MOCLDY    79  70  73 SE5       30.02F
VIDALIA        TSTM      72  70  94 NE8       30.02R
EASTMAN        FAIR      85  70  60 S3        30.02F
HAZLEHURST     FAIR      89  67  49 SW12      29.98F HX  92
ALMA           MOSUNNY   86  66  51 S9        29.99F
WAYCROSS       MOSUNNY   88  68  50 SW9       30.00F HX  91
JESUP          MOCLDY    88  72  58 SE8       30.02S HX  94
BAXLEY         FAIR      88  68  51 S12       29.99F HX  91
BRUNSWICK      MOSUNNY   86  70  58 S10       30.03S HX  90
SAINT SIMONS   MOSUNNY   81  72  74 SE13      30.03F

$$

SCZ027-028-034-036>038-045-046-048>050-GAZ119-141-012100-
...LAKE AND SUPPLEMENTAL COASTAL OBSERVATIONS...

STATION/POSITION TIME  TEMP    WIND        PRES    WAVE   SWELL
                       AIR SEA DIR/SP/G            HT/PER HT/PER/DIR
                 (UTC) (F)     (DEG/KT/KT) (MB)    (FT/S) (FT/S/D)
WINYAH BAY       NOT AVBL
LAKE MURRAY      1900   84     230/  2/  3 1014.9F
ACE BASIN NERRS  NOT AVBL
FORT PULASKI     1900   79 74  160/  7/ 12 1018.0S
SAPELO ISLAND    1900   83     140/ 10     1017.0F

$$

ANZ835-935-AMZ111-154-330-350-352-354-370-450-454-472-012100-
...C-MAN AND BUOY OBSERVATIONS...

STATION/POSITION TIME  TEMP    WIND        PRES    WAVE   SWELL
                       AIR SEA DIR/SP/G            HT/PER HT/PER/DIR
                 (UTC) (F)     (DEG/KT/KT) (MB)    (FT/S) (FT/S/D)
BUOY 41004       1950   76 74  170/ 10/ 10 1017.4F   4/11   3/11
BUOY 41008       NOT AVBL
FOLLY BEACH CMAN 1900   75     180/ 11/ 12 1017.9F
CAPERS NEARSHORE 1908   73 72  180/ 10/ 14 1017.3F
FRIPP NEARSHORE  1908   75 74  180/  8/ 10 1017.2S


STATION/POSITION TIME  TEMP    WIND        PRES    WAVE   SWELL
                       AIR SEA DIR/SP/G            HT/PER HT/PER/DIR
                 (UTC) (F)     (DEG/KT/KT) (MB)    (FT/S) (FT/S/D)
5E ST. MARYS GA  1921      75                N/A     3/ 6
FRYING PAN BUOY  1900   74 72  170/  4/  6 1018.6F
BUOY 41025       1950   74 74  200/ 14/ 16 1019.0F   4/10   3/ 60/10
CAPE LOOKOUT NC  1900   74     220/  9/ 13 1019.1F
BUOY 41002       1950   73     140/  8/  8 1020.3F   4/ 9   3/ 20/ 9
BUOY 41010       1920   77 78  150/ 10/ 14 1018.2F
ST AUGUSTINE FL  2000   75 74  140/ 12/ 14 1017.1F


$$




USA.gov is the U.S. government's official web portal to all federal, state and local government web resources and services.